| time (UTC) | temp F | wind direction | speed knots | gust knots | rain 1hr in | rain 24hr in | rain mn in | humidity % | barometer mb |
| 20260504201632 | 76 | 149 | 1.7 | 10.4 | 0.00 | 0.00 | 0.00 | 35 | 1010.7 |
| 20260504201121 | 76 | 154 | 2.6 | 9.6 | 0.00 | 0.00 | 0.00 | 34 | 1010.7 |
| 20260504200630 | 77 | 249 | 1.7 | 9.6 | 0.00 | 0.00 | 0.00 | 33 | 1010.7 |
| 20260504200118 | 77 | 342 | 2.6 | 10.4 | 0.00 | 0.00 | 0.00 | 33 | 1010.7 |
| 20260504195628 | 76 | 305 | 2.6 | 10.4 | 0.00 | 0.00 | 0.00 | 34 | 1010.7 |
| 20260504195135 | 76 | 255 | 1.7 | 10.4 | 0.00 | 0.00 | 0.00 | 34 | 1011.0 |
| 20260504194644 | 76 | 308 | 5.2 | 11.3 | 0.00 | 0.00 | 0.00 | 33 | 1011.0 |
| 20260504194132 | 76 | 305 | 3.5 | 11.3 | 0.00 | 0.00 | 0.00 | 36 | 1011.1 |
| 20260504193621 | 76 | 218 | 4.3 | 9.6 | 0.00 | 0.00 | 0.00 | 34 | 1011.3 |
| 20260504193147 | 76 | 222 | 6.1 | 13.0 | 0.00 | 0.00 | 0.00 | 33 | 1011.5 |
| 20260504192614 | 76 | 286 | 4.3 | 13.9 | 0.00 | 0.00 | 0.00 | 34 | 1011.5 |
| 20260504192122 | 75 | 229 | 5.2 | 13.9 | 0.00 | 0.00 | 0.00 | 36 | 1011.6 |
| 20260504191651 | 75 | 320 | 2.6 | 7.8 | 0.00 | 0.00 | 0.00 | 36 | 1011.6 |
| 20260504191118 | 75 | 202 | 2.6 | 8.7 | 0.00 | 0.00 | 0.00 | 35 | 1011.8 |
| 20260504190627 | 75 | 81 | 0.9 | 8.7 | 0.00 | 0.00 | 0.00 | 37 | 1011.8 |
| 20260504190115 | 76 | 278 | 3.5 | 11.3 | 0.00 | 0.00 | 0.00 | 37 | 1012.0 |
| 20260504185644 | 75 | 226 | 3.5 | 11.3 | 0.00 | 0.00 | 0.00 | 36 | 1012.0 |
| 20260504185131 | 75 | 241 | 4.3 | 11.3 | 0.00 | 0.00 | 0.00 | 36 | 1012.0 |
| 20260504184621 | 75 | 51 | 5.2 | 9.6 | 0.00 | 0.00 | 0.00 | 36 | 1012.2 |
| 20260504184149 | 75 | 263 | 2.6 | 7.0 | 0.00 | 0.00 | 0.00 | 35 | 1012.1 |
| 20260504183637 | 75 | 284 | 2.6 | 10.4 | 0.00 | 0.00 | 0.00 | 36 | 1012.3 |
| 20260504183124 | 75 | 312 | 3.5 | 10.4 | 0.00 | 0.00 | 0.00 | 35 | 1012.4 |
| 20260504182649 | 75 | 232 | 3.5 | 10.4 | 0.00 | 0.00 | 0.00 | 36 | 1012.4 |
| 20260504182137 | 75 | 288 | 2.6 | 14.8 | 0.00 | 0.00 | 0.00 | 35 | 1012.4 |
| 20260504181624 | 75 | 21 | 4.3 | 14.8 | 0.00 | 0.00 | 0.00 | 34 | 1012.4 |
| 20260504181114 | 75 | 307 | 6.1 | 11.3 | 0.00 | 0.00 | 0.00 | 34 | 1012.5 |
| 20260504180622 | 74 | 191 | 4.3 | 9.6 | 0.00 | 0.00 | 0.00 | 33 | 1012.5 |
| 20260504180132 | 74 | 204 | 2.6 | 7.8 | 0.00 | 0.00 | 0.00 | 36 | 1012.6 |
| 20260504175619 | 74 | 293 | 1.7 | 9.6 | 0.00 | 0.00 | 0.00 | 36 | 1012.7 |
| 20260504175129 | 74 | 278 | 2.6 | 9.6 | 0.00 | 0.00 | 0.00 | 35 | 1012.7 |
| 20260504174618 | 73 | 317 | 2.6 | 7.0 | 0.00 | 0.00 | 0.00 | 34 | 1012.6 |
| 20260504174126 | 74 | 201 | 0.9 | 7.8 | 0.00 | 0.00 | 0.00 | 34 | 1012.6 |
| 20260504173615 | 74 | 293 | 2.6 | 7.8 | 0.00 | 0.00 | 0.00 | 35 | 1012.9 |
| 20260504173124 | 73 | 269 | 1.7 | 13.9 | 0.00 | 0.00 | 0.00 | 35 | 1012.8 |
| 20260504172632 | 73 | 269 | 6.1 | 13.9 | 0.00 | 0.00 | 0.00 | 36 | 1012.9 |
| 20260504172120 | 73 | 295 | 4.3 | 10.4 | 0.00 | 0.00 | 0.00 | 35 | 1012.9 |
| 20260504171648 | 74 | 284 | 3.5 | 9.6 | 0.00 | 0.00 | 0.00 | 31 | 1013.0 |
| 20260504171116 | 73 | 282 | 4.3 | 10.4 | 0.00 | 0.00 | 0.00 | 37 | 1013.0 |
| 20260504170626 | 73 | 181 | 3.5 | 8.7 | 0.00 | 0.00 | 0.00 | 34 | 1013.1 |
| 20260504170150 | 73 | 325 | 1.7 | 9.6 | 0.00 | 0.00 | 0.00 | 36 | 1013.1 |
| 20260504160153 | 72 | 293 | 4.3 | 9.6 | 0.00 | 0.00 | 0.00 | 33 | 1014.0 |
| 20260504151115 | 69 | 165 | 1.7 | 11.3 | 0.00 | 0.00 | 0.00 | 39 | 1014.5 |
| 20260504150623 | 69 | 46 | 3.5 | 11.3 | 0.00 | 0.00 | 0.00 | 35 | 1014.6 |
| 20260504150132 | 69 | 261 | 2.6 | 8.7 | 0.00 | 0.00 | 0.00 | 36 | 1014.7 |
| 20260504141130 | 65 | 325 | 0.9 | 7.8 | 0.00 | 0.00 | 0.00 | 40 | 1014.7 |
| 20260504140619 | 66 | 241 | 0.9 | 6.1 | 0.00 | 0.00 | 0.00 | 42 | 1014.9 |
| 20260504140147 | 65 | 230 | 2.6 | 6.1 | 0.00 | 0.00 | 0.00 | 44 | 1014.9 |
| 20260504130615 | 61 | 217 | 0.9 | 4.3 | 0.00 | 0.00 | 0.00 | 50 | 1015.2 |
| 20260504130124 | 60 | 293 | 0.9 | 4.3 | 0.00 | 0.00 | 0.00 | 49 | 1015.2 |
| 20260504120125 | 50 | 276 | 0.0 | 3.5 | 0.00 | 0.00 | 0.00 | 68 | 1015.5 |
| 20260504110618 | 47 | 304 | 0.0 | 1.7 | 0.00 | 0.00 | 0.00 | 73 | 1015.6 |
| 20260504110127 | 46 | 304 | 0.0 | 1.7 | 0.00 | 0.00 | 0.00 | 73 | 1015.6 |
| 20260504100127 | 47 | 303 | 0.0 | 0.0 | 0.00 | 0.00 | 0.00 | 73 | 1015.5 |
| 20260504090131 | 45 | 212 | 0.0 | 0.0 | 0.00 | 0.00 | 0.00 | 77 | 1015.9 |
| 20260504081626 | 45 | 320 | 0.0 | 0.0 | 0.00 | 0.00 | 0.00 | 76 | 1016.1 |
| 20260504081114 | 45 | 320 | 0.0 | 0.0 | 0.00 | 0.00 | 0.00 | 76 | 1016.1 |
| 20260504080624 | 45 | 320 | 0.0 | 0.0 | 0.00 | 0.00 | 0.00 | 74 | 1016.0 |
| 20260504080133 | 45 | 253 | 0.0 | 0.0 | 0.00 | 0.00 | 0.00 | 74 | 1016.1 |
| 20260504070116 | 44 | 253 | 0.0 | 0.0 | 0.00 | 0.00 | 0.00 | 74 | 1016.1 |
| 20260504060122 | 43 | 253 | 0.0 | 0.0 | 0.00 | 0.00 | 0.00 | 74 | 1016.4 |
| 20260504050629 | 43 | 321 | 0.0 | 0.0 | 0.00 | 0.00 | 0.00 | 75 | 1016.3 |
| 20260504050117 | 43 | 321 | 0.0 | 0.0 | 0.00 | 0.00 | 0.00 | 75 | 1016.3 |
| 20260504045626 | 43 | 321 | 0.0 | 0.0 | 0.00 | 0.00 | 0.00 | 74 | 1016.3 |
| 20260504045116 | 43 | 321 | 0.0 | 0.0 | 0.00 | 0.00 | 0.00 | 74 | 1016.3 |
| 20260504044624 | 43 | 321 | 0.0 | 0.0 | 0.00 | 0.00 | 0.00 | 74 | 1016.3 |
| 20260504044114 | 43 | 321 | 0.0 | 0.0 | 0.00 | 0.00 | 0.00 | 74 | 1016.4 |
| 20260504043623 | 43 | 321 | 0.0 | 0.0 | 0.00 | 0.00 | 0.00 | 74 | 1016.3 |
| 20260504043132 | 43 | 321 | 0.0 | 0.0 | 0.00 | 0.00 | 0.00 | 74 | 1016.3 |
| 20260504042618 | 43 | 321 | 0.0 | 0.0 | 0.00 | 0.00 | 0.00 | 74 | 1016.3 |
| 20260504042126 | 43 | 321 | 0.0 | 0.0 | 0.00 | 0.00 | 0.00 | 72 | 1016.4 |
| 20260504041615 | 44 | 321 | 0.0 | 0.0 | 0.00 | 0.00 | 0.00 | 70 | 1016.3 |
| 20260504041140 | 45 | 321 | 0.0 | 0.0 | 0.00 | 0.00 | 0.00 | 69 | 1016.4 |
| 20260504040629 | 45 | 322 | 0.0 | 0.0 | 0.00 | 0.00 | 0.00 | 69 | 1016.3 |
| 20260504040117 | 45 | 321 | 0.0 | 1.7 | 0.00 | 0.00 | 0.00 | 70 | 1016.3 |
| 20260504035622 | 44 | 321 | 0.9 | 1.7 | 0.00 | 0.00 | 0.00 | 72 | 1016.3 |
| 20260504035131 | 44 | 229 | 0.0 | 1.7 | 0.00 | 0.00 | 0.00 | 69 | 1016.2 |
| 20260504034620 | 44 | 240 | 0.0 | 0.0 | 0.00 | 0.00 | 0.00 | 72 | 1016.1 |
| 20260504034129 | 44 | 240 | 0.0 | 0.0 | 0.00 | 0.00 | 0.00 | 70 | 1016.2 |
| 20260504033617 | 45 | 238 | 0.0 | 0.0 | 0.00 | 0.00 | 0.00 | 67 | 1016.1 |
| 20260504033125 | 46 | 238 | 0.0 | 0.0 | 0.00 | 0.00 | 0.00 | 65 | 1016.1 |
| 20260504032654 | 46 | 311 | 0.0 | 0.0 | 0.00 | 0.00 | 0.00 | 66 | 1015.9 |
| 20260504032122 | 45 | 311 | 0.0 | 0.0 | 0.00 | 0.00 | 0.00 | 69 | 1015.8 |
| 20260504031631 | 45 | 311 | 0.0 | 0.0 | 0.00 | 0.00 | 0.00 | 70 | 1015.8 |
| 20260504031119 | 45 | 311 | 0.0 | 0.0 | 0.00 | 0.00 | 0.00 | 68 | 1015.8 |
| 20260504030627 | 46 | 311 | 0.0 | 0.0 | 0.00 | 0.00 | 0.00 | 65 | 1015.8 |
| 20260504030117 | 47 | 311 | 0.0 | 0.0 | 0.00 | 0.00 | 0.00 | 64 | 1015.8 |
| 20260504025625 | 47 | 311 | 0.0 | 0.0 | 0.00 | 0.00 | 0.00 | 66 | 1015.7 |
| 20260504025114 | 45 | 311 | 0.0 | 0.0 | 0.00 | 0.00 | 0.00 | 69 | 1015.8 |
| 20260504024623 | 45 | 311 | 0.0 | 0.0 | 0.00 | 0.00 | 0.00 | 66 | 1015.7 |
| 20260504024148 | 46 | 311 | 0.0 | 0.0 | 0.00 | 0.00 | 0.00 | 66 | 1015.8 |
| 20260504023616 | 46 | 311 | 0.0 | 0.0 | 0.00 | 0.00 | 0.00 | 64 | 1015.8 |
| 20260504023125 | 46 | 311 | 0.0 | 0.0 | 0.00 | 0.00 | 0.00 | 63 | 1015.8 |
| 20260504022635 | 47 | 311 | 0.0 | 0.0 | 0.00 | 0.00 | 0.00 | 61 | 1015.8 |
| 20260504022123 | 48 | 311 | 0.0 | 0.0 | 0.00 | 0.00 | 0.00 | 61 | 1015.9 |
| 20260504021631 | 49 | 311 | 0.0 | 0.0 | 0.00 | 0.00 | 0.00 | 59 | 1015.8 |
| 20260504021119 | 48 | 311 | 0.0 | 0.0 | 0.00 | 0.00 | 0.00 | 61 | 1015.7 |
| 20260504020627 | 48 | 311 | 0.0 | 0.0 | 0.00 | 0.00 | 0.00 | 60 | 1015.6 |
| 20260504020117 | 48 | 311 | 0.0 | 0.0 | 0.00 | 0.00 | 0.00 | 60 | 1015.7 |
| 20260504015625 | 49 | 311 | 0.0 | 0.0 | 0.00 | 0.00 | 0.00 | 58 | 1015.6 |
| 20260504015115 | 49 | 311 | 0.0 | 0.0 | 0.00 | 0.00 | 0.00 | 57 | 1015.6 |
| 20260504014619 | 49 | 311 | 0.0 | 0.0 | 0.00 | 0.00 | 0.00 | 59 | 1015.6 |
| 20260504014128 | 49 | 311 | 0.0 | 0.0 | 0.00 | 0.00 | 0.00 | 60 | 1015.6 |
| 20260504013637 | 49 | 311 | 0.0 | 0.0 | 0.00 | 0.00 | 0.00 | 59 | 1015.6 |
| 20260504013125 | 49 | 311 | 0.0 | 0.0 | 0.00 | 0.00 | 0.00 | 55 | 1015.6 |
| 20260504012613 | 50 | 311 | 0.0 | 0.0 | 0.00 | 0.00 | 0.00 | 57 | 1015.6 |
| 20260504012117 | 50 | 311 | 0.0 | 0.0 | 0.00 | 0.00 | 0.00 | 54 | 1015.6 |
| 20260504011626 | 51 | 311 | 0.0 | 0.0 | 0.00 | 0.00 | 0.00 | 54 | 1015.6 |
| 20260504011115 | 51 | 311 | 0.0 | 0.0 | 0.00 | 0.00 | 0.00 | 54 | 1015.6 |
| 20260504010644 | 51 | 311 | 0.0 | 0.0 | 0.00 | 0.00 | 0.00 | 51 | 1015.4 |
| 20260504010132 | 52 | 311 | 0.0 | 0.0 | 0.00 | 0.00 | 0.00 | 52 | 1015.3 |
| 20260504005622 | 52 | 311 | 0.0 | 0.0 | 0.00 | 0.00 | 0.00 | 51 | 1015.2 |
| 20260504005130 | 52 | 311 | 0.0 | 0.0 | 0.00 | 0.00 | 0.00 | 54 | 1015.3 |
| 20260504004619 | 52 | 311 | 0.0 | 0.0 | 0.00 | 0.00 | 0.00 | 50 | 1015.2 |
| 20260504004127 | 52 | 311 | 0.0 | 0.0 | 0.00 | 0.00 | 0.00 | 49 | 1015.1 |
| 20260504003617 | 53 | 311 | 0.0 | 0.0 | 0.00 | 0.00 | 0.00 | 47 | 1015.1 |
| 20260504003125 | 53 | 311 | 0.0 | 0.0 | 0.00 | 0.00 | 0.00 | 46 | 1015.1 |
| 20260504002614 | 54 | 311 | 0.0 | 0.0 | 0.00 | 0.00 | 0.00 | 48 | 1015.1 |
| 20260504002123 | 54 | 311 | 0.0 | 0.0 | 0.00 | 0.00 | 0.00 | 44 | 1015.0 |
| 20260504001633 | 55 | 311 | 0.0 | 0.0 | 0.00 | 0.00 | 0.00 | 47 | 1014.8 |
| 20260504001121 | 55 | 311 | 0.0 | 0.9 | 0.00 | 0.00 | 0.00 | 44 | 1014.9 |
| 20260504000630 | 56 | 311 | 0.0 | 0.9 | 0.00 | 0.00 | 0.00 | 41 | 1014.8 |
| 20260504000117 | 57 | 311 | 0.0 | 0.9 | 0.00 | 0.00 | 0.00 | 39 | 1014.8 |
| 20260503235626 | 57 | 307 | 0.0 | 0.9 | 0.00 | 0.00 | 0.00 | 40 | 1014.7 |
| 20260503235115 | 57 | 307 | 0.0 | 1.7 | 0.00 | 0.00 | 0.00 | 37 | 1014.7 |
| 20260503234625 | 58 | 312 | 0.9 | 2.6 | 0.00 | 0.00 | 0.00 | 37 | 1014.7 |
| 20260503234128 | 58 | 299 | 1.7 | 2.6 | 0.00 | 0.00 | 0.00 | 35 | 1014.7 |
| 20260503233618 | 59 | 312 | 0.0 | 2.6 | 0.00 | 0.00 | 0.00 | 34 | 1014.5 |
| 20260503233126 | 59 | 300 | 0.9 | 2.6 | 0.00 | 0.00 | 0.00 | 34 | 1014.5 |
| 20260503232615 | 59 | 295 | 0.0 | 4.3 | 0.00 | 0.00 | 0.00 | 33 | 1014.4 |
| 20260503232123 | 60 | 304 | 1.7 | 4.3 | 0.00 | 0.00 | 0.00 | 32 | 1014.4 |
| 20260503231632 | 60 | 309 | 0.9 | 3.5 | 0.00 | 0.00 | 0.00 | 32 | 1014.4 |
| 20260503231122 | 60 | 301 | 0.9 | 7.0 | 0.00 | 0.00 | 0.00 | 31 | 1014.4 |
| 20260503230630 | 60 | 11 | 0.9 | 7.0 | 0.00 | 0.00 | 0.00 | 32 | 1014.4 |
| 20260503230119 | 60 | 299 | 1.7 | 7.0 | 0.00 | 0.00 | 0.00 | 31 | 1014.3 |
| 20260503225629 | 61 | 15 | 0.9 | 6.1 | 0.00 | 0.00 | 0.00 | 33 | 1014.2 |
| 20260503225118 | 61 | 314 | 0.9 | 6.1 | 0.00 | 0.00 | 0.00 | 32 | 1014.4 |
| 20260503224627 | 61 | 288 | 1.7 | 3.5 | 0.00 | 0.00 | 0.00 | 32 | 1014.4 |
| 20260503224116 | 61 | 309 | 1.7 | 6.1 | 0.00 | 0.00 | 0.00 | 31 | 1014.4 |
| 20260503223624 | 61 | 340 | 2.6 | 6.1 | 0.00 | 0.00 | 0.00 | 32 | 1014.4 |
| 20260503223132 | 61 | 295 | 1.7 | 6.1 | 0.00 | 0.00 | 0.00 | 31 | 1014.4 |
| 20260503222620 | 61 | 300 | 2.6 | 6.1 | 0.00 | 0.00 | 0.00 | 30 | 1014.4 |
| 20260503222129 | 61 | 328 | 0.9 | 4.3 | 0.00 | 0.00 | 0.00 | 30 | 1014.4 |
| 20260503221619 | 61 | 34 | 1.7 | 7.8 | 0.00 | 0.00 | 0.00 | 30 | 1014.4 |
| 20260503221128 | 61 | 92 | 2.6 | 13.0 | 0.00 | 0.00 | 0.00 | 30 | 1014.4 |
| 20260503220617 | 62 | 331 | 4.3 | 13.0 | 0.00 | 0.00 | 0.00 | 30 | 1014.5 |
| 20260503220126 | 62 | 313 | 3.5 | 9.6 | 0.00 | 0.00 | 0.00 | 30 | 1014.4 |
| 20260503215636 | 62 | 293 | 2.6 | 9.6 | 0.00 | 0.00 | 0.00 | 31 | 1014.4 |
| 20260503215118 | 62 | 316 | 2.6 | 9.6 | 0.00 | 0.00 | 0.00 | 30 | 1014.5 |
| 20260503214627 | 62 | 20 | 3.5 | 10.4 | 0.00 | 0.00 | 0.00 | 29 | 1014.4 |
| 20260503214115 | 62 | 20 | 2.6 | 10.4 | 0.00 | 0.00 | 0.00 | 29 | 1014.5 |
| 20260503213644 | 62 | 281 | 6.1 | 10.4 | 0.00 | 0.00 | 0.00 | 29 | 1014.4 |
| 20260503213132 | 62 | 343 | 4.3 | 10.4 | 0.00 | 0.00 | 0.00 | 29 | 1014.5 |
| 20260503212621 | 62 | 287 | 2.6 | 10.4 | 0.00 | 0.00 | 0.00 | 30 | 1014.5 |
| 20260503212129 | 63 | 288 | 2.6 | 7.8 | 0.00 | 0.00 | 0.00 | 31 | 1014.4 |
| 20260503211619 | 62 | 353 | 2.6 | 7.8 | 0.00 | 0.00 | 0.00 | 31 | 1014.4 |
| 20260503211127 | 62 | 5 | 2.6 | 8.7 | 0.00 | 0.00 | 0.00 | 29 | 1014.3 |
| 20260503210635 | 62 | 9 | 0.9 | 10.4 | 0.00 | 0.00 | 0.00 | 32 | 1014.4 |
| 20260503210123 | 62 | 300 | 4.3 | 13.9 | 0.00 | 0.00 | 0.00 | 29 | 1014.4 |
| 20260503205632 | 62 | 308 | 6.1 | 13.9 | 0.00 | 0.00 | 0.00 | 29 | 1014.4 |
| 20260503205120 | 62 | 71 | 1.7 | 9.6 | 0.00 | 0.00 | 0.00 | 30 | 1014.5 |
| 20260503204630 | 62 | 308 | 3.5 | 11.3 | 0.00 | 0.00 | 0.00 | 29 | 1014.5 |
| 20260503204118 | 62 | 290 | 5.2 | 11.3 | 0.00 | 0.00 | 0.00 | 31 | 1014.4 |
| 20260503203628 | 62 | 300 | 4.3 | 10.4 | 0.00 | 0.00 | 0.00 | 33 | 1014.5 |
| 20260503203116 | 61 | 325 | 2.6 | 8.7 | 0.00 | 0.00 | 0.00 | 34 | 1014.7 |
| 20260503202624 | 61 | 344 | 1.7 | 8.7 | 0.00 | 0.00 | 0.00 | 33 | 1014.8 |
| 20260503202149 | 62 | 12 | 3.5 | 8.7 | 0.00 | 0.00 | 0.00 | 31 | 1014.9 |